EN

Hourly Weather Basavakalyan

Today, 20 January, Wednesday

Time Temperature Precipitation Wind Pressure Humidity
00:00 +23°C° 0 mm 2 mps 704 mmHg 48%
01:00 +23°C° 0 mm 2 mps 704 mmHg 49%
02:00 +21°C° 0 mm 2 mps 704 mmHg 49%
03:00 +21°C° 0 mm 2 mps 704 mmHg 50%
04:00 +20°C° 0 mm 3 mps 704 mmHg 51%
05:00 +20°C° 0 mm 3 mps 704 mmHg 54%
06:00 +21°C° 0 mm 3 mps 704 mmHg 54%
07:00 +22°C° 0 mm 4 mps 705 mmHg 53%
08:00 +23°C° 0 mm 4 mps 706 mmHg 53%
09:00 +26°C° 0 mm 4 mps 706 mmHg 47%
10:00 +28°C° 0 mm 3 mps 706 mmHg 41%
11:00 +30°C° 0 mm 3 mps 707 mmHg 36%
12:00 +31°C° 0 mm 3 mps 706 mmHg 33%
13:00 +32°C° 0 mm 2 mps 705 mmHg 29%
14:00 +34°C° 0 mm 2 mps 704 mmHg 26%
15:00 +34°C° 0 mm 2 mps 704 mmHg 26%
16:00 +34°C° 0 mm 2 mps 704 mmHg 26%
17:00 +32°C° 0 mm 2 mps 704 mmHg 26%
18:00 +31°C° 0 mm 2 mps 704 mmHg 29%
19:00 +29°C° 0 mm 2 mps 704 mmHg 32%
20:00 +27°C° 0 mm 2 mps 704 mmHg 35%
21:00 +26°C° 0 mm 2 mps 704 mmHg 37%
22:00 +25°C° 0 mm 2 mps 704 mmHg 39%
23:00 +24°C° 0 mm 2 mps 704 mmHg 41%

Tomorrow, 21 January, Thursday

Time Temperature Precipitation Wind Pressure Humidity
00:00 +24°C° 0 mm 1 mps 704 mmHg 42%
01:00 +23°C° 0 mm 1 mps 703 mmHg 44%
02:00 +23°C° 0 mm 1 mps 703 mmHg 46%
03:00 +22°C° 0 mm 1 mps 703 mmHg 46%
04:00 +21°C° 0 mm 2 mps 703 mmHg 47%
05:00 +21°C° 0 mm 3 mps 703 mmHg 48%
06:00 +21°C° 0 mm 3 mps 704 mmHg 45%
07:00 +22°C° 0 mm 3 mps 705 mmHg 43%
08:00 +24°C° 0 mm 3 mps 706 mmHg 40%
09:00 +26°C° 0 mm 3 mps 706 mmHg 36%
10:00 +28°C° 0 mm 3 mps 706 mmHg 31%
11:00 +31°C° 0 mm 3 mps 706 mmHg 27%
12:00 +31°C° 0 mm 3 mps 706 mmHg 25%
13:00 +32°C° 0 mm 2 mps 705 mmHg 23%
14:00 +34°C° 0 mm 2 mps 704 mmHg 22%
15:00 +34°C° 0 mm 2 mps 704 mmHg 22%
16:00 +34°C° 0 mm 2 mps 704 mmHg 22%
17:00 +32°C° 0 mm 2 mps 704 mmHg 22%
18:00 +30°C° 0 mm 2 mps 704 mmHg 25%
19:00 +28°C° 0 mm 3 mps 704 mmHg 27%
20:00 +26°C° 0 mm 3 mps 704 mmHg 30%
21:00 +25°C° 0 mm 3 mps 704 mmHg 31%
22:00 +24°C° 0 mm 3 mps 704 mmHg 32%
23:00 +24°C° 0 mm 3 mps 704 mmHg 33%

Day after tomorrow, 22 January, Friday

Time Temperature Precipitation Wind Pressure Humidity
00:00 +22°C° 0 mm 3 mps 703 mmHg 34%
01:00 +21°C° 0 mm 3 mps 703 mmHg 35%
02:00 +21°C° 0 mm 3 mps 703 mmHg 37%
03:00 +20°C° 0 mm 2 mps 703 mmHg 38%
04:00 +20°C° 0 mm 2 mps 703 mmHg 40%
05:00 +19°C° 0 mm 2 mps 703 mmHg 41%
06:00 +20°C° 0 mm 3 mps 704 mmHg 39%
07:00 +22°C° 0 mm 3 mps 705 mmHg 37%
08:00 +24°C° 0 mm 3 mps 706 mmHg 35%
09:00 +27°C° 0 mm 3 mps 706 mmHg 31%
10:00 +29°C° 0 mm 3 mps 706 mmHg 27%
11:00 +32°C° 0 mm 4 mps 706 mmHg 22%
12:00 +33°C° 0 mm 3 mps 705 mmHg 21%
13:00 +34°C° 0 mm 2 mps 705 mmHg 19%
14:00 +35°C° 0 mm 2 mps 704 mmHg 17%
15:00 +34°C° 0 mm 2 mps 704 mmHg 17%
16:00 +34°C° 0 mm 2 mps 703 mmHg 17%
17:00 +34°C° 0 mm 2 mps 703 mmHg 18%
18:00 +30°C° 0 mm 3 mps 703 mmHg 19%
19:00 +28°C° 0 mm 3 mps 704 mmHg 21%
20:00 +26°C° 0 mm 4 mps 704 mmHg 23%
21:00 +25°C° 0 mm 3 mps 704 mmHg 23%
22:00 +24°C° 0 mm 3 mps 704 mmHg 24%
23:00 +22°C° 0 mm 3 mps 703 mmHg 25%

23 January, Saturday

Time Temperature Precipitation Wind Pressure Humidity
00:00 +21°C° 0 mm 2 mps 703 mmHg 26%
01:00 +21°C° 0 mm 2 mps 703 mmHg 27%
02:00 +21°C° 0 mm 2 mps 703 mmHg 27%
03:00 +20°C° 0 mm 2 mps 703 mmHg 29%
04:00 +19°C° 0 mm 2 mps 703 mmHg 31%
05:00 +20°C° 0 mm 1 mps 703 mmHg 33%
06:00 +20°C° 0 mm 2 mps 703 mmHg 35%
07:00 +23°C° 0 mm 2 mps 704 mmHg 36%
08:00 +25°C° 0 mm 2 mps 705 mmHg 38%
09:00 +27°C° 0 mm 2 mps 705 mmHg 35%
10:00 +29°C° 0 mm 3 mps 706 mmHg 32%
11:00 +31°C° 0 mm 3 mps 706 mmHg 29%
12:00 +32°C° 0 mm 2 mps 705 mmHg 26%
13:00 +34°C° 0 mm 2 mps 705 mmHg 23%
14:00 +34°C° 0 mm 1 mps 704 mmHg 20%
15:00 +34°C° 0 mm 1 mps 704 mmHg 21%
16:00 +34°C° 0 mm 1 mps 703 mmHg 21%
17:00 +33°C° 0 mm 1 mps 703 mmHg 21%
18:00 +31°C° 0 mm 1 mps 703 mmHg 25%
19:00 +29°C° 0 mm 1 mps 703 mmHg 28%
20:00 +24°C° 0 mm 0 mps 704 mmHg 31%
21:00 +26°C° 0 mm 1 mps 703 mmHg 32%
22:00 +25°C° 0 mm 1 mps 703 mmHg 34%
23:00 +24°C° 0 mm 1 mps 703 mmHg 35%

24 January, Sunday

Time Temperature Precipitation Wind Pressure Humidity
00:00 +24°C° 0 mm 1 mps 703 mmHg 36%
01:00 +23°C° 0 mm 1 mps 703 mmHg 37%
02:00 +22°C° 0 mm 1 mps 702 mmHg 38%
03:00 +22°C° 0 mm 1 mps 702 mmHg 41%
04:00 +20°C° 0 mm 2 mps 702 mmHg 44%
05:00 +20°C° 0 mm 2 mps 702 mmHg 48%
06:00 +21°C° 0 mm 2 mps 703 mmHg 48%
07:00 +23°C° 0 mm 2 mps 704 mmHg 48%
08:00 +24°C° 0 mm 2 mps 705 mmHg 49%
09:00 +26°C° 0 mm 2 mps 705 mmHg 43%
10:00 +29°C° 0 mm 2 mps 705 mmHg 37%
11:00 +31°C° 0 mm 3 mps 705 mmHg 31%
12:00 +33°C° 0 mm 3 mps 705 mmHg 28%
13:00 +34°C° 0 mm 2 mps 704 mmHg 24%
14:00 +35°C° 0 mm 2 mps 704 mmHg 21%
15:00 +35°C° 0 mm 2 mps 704 mmHg 21%
16:00 +35°C° 0 mm 2 mps 703 mmHg 21%
17:00 +35°C° 0 mm 2 mps 703 mmHg 21%
18:00 +31°C° 0 mm 2 mps 703 mmHg 25%
19:00 +29°C° 0 mm 1 mps 704 mmHg 29%
20:00 +27°C° 0 mm 1 mps 704 mmHg 32%
21:00 +26°C° 0 mm 1 mps 704 mmHg 33%
22:00 +26°C° 0 mm 1 mps 704 mmHg 34%
23:00 +25°C° 0 mm 2 mps 704 mmHg 35%

25 January, Monday

Time Temperature Precipitation Wind Pressure Humidity
00:00 +24°C° 0 mm 2 mps 704 mmHg 38%
01:00 +24°C° 0 mm 2 mps 703 mmHg 41%
02:00 +23°C° 0 mm 2 mps 703 mmHg 44%
03:00 +21°C° 0 mm 2 mps 703 mmHg 47%
04:00 +21°C° 0 mm 1 mps 703 mmHg 51%
05:00 +20°C° 0 mm 1 mps 703 mmHg 54%
06:00 +21°C° 0 mm 1 mps 704 mmHg 53%
07:00 +23°C° 0 mm 1 mps 704 mmHg 52%
08:00 +24°C° 0 mm 2 mps 705 mmHg 51%
09:00 +26°C° 0 mm 2 mps 705 mmHg 45%
10:00 +29°C° 0 mm 2 mps 706 mmHg 40%
11:00 +31°C° 0 mm 3 mps 706 mmHg 34%
12:00 +33°C° 0 mm 3 mps 705 mmHg 30%
13:00 +34°C° 0 mm 3 mps 705 mmHg 27%
14:00 +35°C° 0 mm 2 mps 704 mmHg 23%
15:00 +35°C° 0 mm 2 mps 704 mmHg 23%
16:00 +35°C° 0 mm 2 mps 704 mmHg 23%
17:00 +34°C° 0 mm 2 mps 703 mmHg 22%
18:00 +31°C° 0 mm 2 mps 704 mmHg 26%
19:00 +29°C° 0 mm 2 mps 704 mmHg 29%
20:00 +27°C° 0 mm 2 mps 704 mmHg 32%
21:00 +26°C° 0 mm 2 mps 704 mmHg 33%
22:00 +26°C° 0 mm 2 mps 704 mmHg 34%
23:00 +25°C° 0 mm 2 mps 704 mmHg 34%
Show more

We Need Your Consent

Meteoprog and our Service Providers may store and access personal data such as cookies, device identifiers or other similar technologies on your device and process such data to personalise content and ads, as well as provide social media features and to analyse the traffic.

  • Store and/or access information on your device

    Cookies, device identifiers or other information can be stored or accessed on your device for the purposes indicated above.

  • Personalised ads and content, ad and content measurement, audience insights, and products development

    Ads and content can be personalised based on a profile. More data can be added to better personalise ads and content. Ad and content performance can be measured. Insights about the audience who saw the ads and content can be derived. Such data can be used to develop or improve user’s experience, systems and software.

By clicking ‘I Agree’ you will allow the use of indicated cookies, device identifiers, web beacons or other similar technologies. Your settings can be changed in the browser on your device.

For certain purposes, legitimate interests may be relied on, rather than consent. You can read more about this in our Privacy and Cookie Policy.